Location: Coupvray
(48.8929°N, 2.7967°E)
Time: 10:32:11
(UTC+00:00)

Cosmos 2100 Rocket - Pass Details

Date: 14 July 2020
Orbit: 955 x 1002 km, 82.9° (Epoch: 05 August)

Event Time Altitude Azimuth Distance (km) Brightness Sun altitude
Exits shadow 00:45:06 24° 159° (SSE) 1,901 5.1 -18.6°
Maximum altitude 00:48:46 55° 92° (E) 1,168 4.4 -18.5°
Drops below altitude 10° 00:54:49 10° 17° (NNE) 2,724 7.6 -18.2°
Sets 00:57:21 0° 13° (NNE) 3,669 8.8 -18.1°
